STARLINK-4715, 53801

Orbit data source: Space-Track

STARLINK-4715, 53801 is a payload satellite owned by SpaceX/Seattle (US) in LEO that was launched on Sun, 11 Sep 2022 UTC via an FALCON 9 launch vehicle from the Air Force Eastern Test Range (AFETR). Payload-class satellites include a variety of spacecraft equipped with specific instruments for various scientific and technological missions. These include communications satellites like Starlink; space stations such as the ISS; scientific satellites like the Hubble; Earth observation satellites from companies like Planet Labs, Umbra, and HawkEye 360; GPS; miniature CubeSats for education and research; and military/defense satellites.

Loading next visibility...
Identifier
53801, 2022-111AE
Orbit
LEO
Country
Flag of USUS
Related business
Manufacturer
SpaceX/Seattle
Mission
Operational Commercial Communications
Bus & Motor
STARLINK, Unknown motor
Mass
305 kg wet, ~290 kg dry
Launch date (UTC)
2022-09-11 (4 years ago)
Launch vehicle
FALCON 9
Launch site
Air Force Eastern Test Range (AFETR)
Object type
Payload
Rocket body
Debris
Shape & HBR
Box + 1 Pan, 10.1 m
Radar Cross Section
13.562 m², Large (>1 m²)

Expand to show TLE details & history
Last TLE update: 20 hours ago

TLE from 20 hours ago
0 STARLINK-4715
1 53801U 22111AE  26171.41668980  .00089203  00000-0  51712-2 0  9993
2 53801  53.1602 162.5852 0001819  60.2867 110.5145 15.11427094  5829
Epoch: 2026-06-20T10:00Z
TLE epoch observation values (Epoch: 2026-06-20T10:00:01.998Z)
Latitude
7.30078°
Longitude
-81.53228°
Altitude
532.527 km
Speed
7.598 km/s
True Right ascension
22h 28m 25s
True Declination
7° 15' 22"
Sunlit
Object was in daylight at epoch
Visualization orbit readout
Latitude
Unknown
Longitude
Unknown
Altitude
Unknown
Speed
Unknown
Apparent Right ascension
Unknown
Apparent Declination
Unknown
Sunlit
N/A
Visualization observer readout
Local Sidereal Time
17:00:04
Azimuth
Unknown
Elevation
Unknown
Doppler factor
Unknown
Orbital elements
Apogee altitude
533.358 km
Perigee altitude
530.844 km
Semi-major axis
6,910.238 km
Eccentricity
0.00018
Inclination
53.1602°
RAAN
162.5852°
Arg. of periapsis
60.2867°
True anomaly
110.53402°
Mean anomaly
110.5145°
Eccentric anomaly
110.52426°
Mean motion
3.77836 °/min
Orbital period
95.28 mins
BSTAR
0.0051712
Loading maneuver chart data...
Computing Atmospheric mass density...

Documentation

Showing up to 5 results
|